Track ONEWEB-0093 now! 10-day predictions ONEWEB-0093 is classified as:
1 45444U 20020W 21110.30439798 .00000338 00000-0 92390-3 0 9993 2 45444 87.8947 35.6045 0002127 78.4289 281.7077 13.10886256 55764